Location: Mahannah Oil Field
(37.4664°N, 96.6003°W)
Time: 15:38:59
(UTC+00:00)

Vanguard 2 Rocket - Pass Details

Date: 22 January 2021
Orbit: 554 x 3325 km, 32.9° (Epoch: 06 March)

Event Time Altitude Azimuth Distance (km) Brightness Sun altitude
Rises 00:56:36 0° 266° (W) 4,992 12.4 -15.4°
Reaches altitude 10° 01:00:39 10° 263° (W) 3,541 11.3 -16.2°
Maximum altitude 01:08:39 57° 187° (S) 1,083 7.3 -17.7°
Enters shadow 01:11:41 25° 117° (ESE) 1,549 7.6 -18.3°
Drops below altitude 10° 01:13:30 10° 109° (ESE) 2,175 - -18.7°
Sets 01:15:28 0° 104° (ESE) 2,940 - -19.1°
